Location: Lucerne Valley
(34.4439°N, 116.9669°E)
Time: 09:00:01
(UTC-08:00)

Hubble Space Telescope - Pass Details

Date: 07 October 2017
Orbit: 537 x 541 km, 28.5° (Epoch: 15 December)

Event Time Altitude Azimuth Distance (km) Brightness Sun altitude
Exits shadow 13:44:48 30° 210° (SSW) 966 1.7 -18.7°
Maximum altitude 13:45:35 33° 186° (S) 911 1.8 -18.6°
Drops below altitude 10° 13:49:19 10° 122° (ESE) 1,786 4.2 -17.8°
Sets 13:51:43 0° 112° (ESE) 2,676 5.5 -17.3°
